EW5833 Weather Reports


Display with metric or nautical units.
time (UTC)temp
F
wind
direction
speed
MPH
gust
MPH
rain 1hr
in
rain 24hr
in
rain mn
in
humidity
%
barometer
mb
20260503025652 33 0 0.0 0.0 0.00 0.01 0.01 86 1014.5
20260503025201 33 0 0.0 0.0 0.00 0.01 0.01 86 1014.5
20260503024644 34 0 0.0 0.0 0.00 0.01 0.01 85 1014.5
20260503024217 35 0 0.0 0.0 0.00 0.01 0.01 85 1014.6
20260503024212 34 0 0.0 0.0 0.00 0.01 0.01 85 1014.5
20260503024017 35 0 0.0 0.0 0.00 0.01 0.01 84 1014.7
20260503023355 35 0 0.0 0.0 0.00 0.01 0.01 85 1014.6
20260503022724 35 0 0.0 0.0 0.00 0.01 0.01 84 1014.7
20260503021145 36 0 0.0 0.0 0.00 0.01 0.01 82 1014.7
20260503020830 36 0 0.0 0.0 0.00 0.01 0.01 80 1014.6
20260503020715 36 0 0.0 0.0 0.00 0.01 0.01 80 1014.6
20260503015621 36 0 0.0 0.0 0.00 0.01 0.01 78 1014.6
20260503015139 36 0 0.0 0.0 0.00 0.01 0.01 78 1014.6
20260503014624 37 0 0.0 0.0 0.00 0.01 0.01 76 1014.6
20260503014138 37 0 0.0 0.0 0.00 0.01 0.01 76 1014.6
20260503013613 37 0 0.0 0.0 0.00 0.01 0.01 74 1014.5
20260503013348 37 0 0.0 0.0 0.00 0.01 0.01 74 1014.5
20260503012307 38 0 0.0 0.0 0.00 0.01 0.01 71 1014.5
20260503012139 38 0 0.0 0.0 0.00 0.01 0.01 70 1014.5
20260503011715 38 0 0.0 0.0 0.00 0.01 0.01 71 1014.5
20260503010133 39 0 0.0 0.0 0.00 0.01 0.01 63 1014.5
20260503005827 40 0 0.0 0.0 0.00 0.01 0.01 63 1014.4
20260503005709 40 0 0.0 0.0 0.00 0.01 0.01 63 1014.4
20260503004130 41 0 0.0 0.0 0.00 0.01 0.01 60 1014.3
20260503003130 42 0 0.0 0.0 0.00 0.01 0.01 56 1014.3
20260503002130 43 0 0.0 1.0 0.00 0.01 0.01 53 1014.3
20260503001129 44 0 0.0 2.0 0.00 0.01 0.01 51 1014.3
20260503001026 47 169 2.0 7.0 0.00 0.01 0.01 44 1014.5
20260503000835 45 0 0.0 0.0 0.00 0.01 0.01 49 1014.3
20260503000538 45 76 2.0 10.0 0.00 0.01 0.01 46 1014.6
20260503000526 45 321 4.0 11.0 0.00 0.01 0.01 46 1014.8
20260503000521 47 169 2.0 7.0 0.00 0.01 0.01 44 1014.5
20260503000517 46 297 3.0 9.0 0.00 0.01 0.01 45 1014.6
20260503000419 45 0 0.0 0.0 0.00 0.01 0.01 49 1014.3
20260502235921 47 240 1.0 5.0 0.00 0.01 0.01 47 1014.5
20260502235916 45 76 2.0 10.0 0.00 0.01 0.01 46 1014.6
20260502235911 46 302 2.0 7.0 0.00 0.01 0.01 43 1014.5
20260502235614 46 297 3.0 9.0 0.00 0.01 0.01 45 1014.6
20260502235608 46 0 2.0 6.0 0.00 0.01 0.01 46 1014.7
20260502235559 46 289 1.0 5.0 0.00 0.01 0.01 47 1014.6
20260502235549 46 0 1.0 8.0 0.00 0.01 0.01 46 1014.6
20260502235543 46 302 2.0 7.0 0.00 0.01 0.01 43 1014.5
20260502235538 46 328 2.0 5.0 0.00 0.01 0.01 44 1014.5
20260502235242 46 328 2.0 5.0 0.00 0.01 0.01 44 1014.5
20260502235217 45 0 0.0 3.0 0.00 0.01 0.01 46 1014.4
20260502234940 46 0 0.0 2.0 0.00 0.01 0.01 46 1014.4
20260502234638 47 281 2.0 7.0 0.00 0.01 0.01 42 1014.5
20260502234633 47 342 1.0 5.0 0.00 0.01 0.01 42 1014.5
20260502234626 46 82 2.0 8.0 0.00 0.01 0.01 46 1014.4
20260502234616 46 261 1.0 8.0 0.00 0.01 0.01 44 1014.4
20260502234605 47 0 1.0 8.0 0.00 0.01 0.01 42 1014.4
20260502234556 47 0 2.0 9.0 0.00 0.01 0.01 45 1014.3
20260502234550 46 0 1.0 5.0 0.00 0.01 0.01 44 1014.4
20260502234235 46 0 0.0 2.0 0.00 0.01 0.01 46 1014.4
20260502233344 46 0 1.0 5.0 0.00 0.01 0.01 44 1014.4
20260502232840 47 342 1.0 5.0 0.00 0.01 0.01 42 1014.5
20260502232835 46 0 2.0 6.0 0.00 0.01 0.01 46 1014.7
20260502232829 46 82 2.0 8.0 0.00 0.01 0.01 46 1014.4
20260502204130 45 306 2.0 7.0 0.00 0.01 0.01 48 1014.8
20260502204050 45 251 2.0 7.0 0.00 0.01 0.01 48 1014.9
20260502203340 45 251 2.0 7.0 0.00 0.01 0.01 48 1014.9
20260502202130 46 280 1.0 5.0 0.00 0.01 0.01 47 1014.9
20260502201616 45 252 2.0 7.0 0.00 0.01 0.01 47 1015.0
20260502201340 45 252 2.0 7.0 0.00 0.01 0.01 47 1015.0
20260502201059 45 291 3.0 11.0 0.00 0.01 0.01 48 1015.2
20260502200342 45 291 3.0 11.0 0.00 0.01 0.01 48 1015.2
20260502195130 46 270 4.0 9.0 0.00 0.01 0.01 47 1015.2
20260502195050 46 296 2.0 9.0 0.00 0.01 0.01 45 1015.3
20260502194340 46 296 2.0 9.0 0.00 0.01 0.01 45 1015.3
20260502193129 47 264 3.0 10.0 0.00 0.01 0.01 45 1015.4
20260502192608 46 327 2.0 10.0 0.00 0.01 0.01 47 1015.3
20260502192341 46 327 2.0 10.0 0.00 0.01 0.01 47 1015.3
20260502191606 46 0 2.0 7.0 0.00 0.01 0.01 47 1015.5
20260502191342 46 0 2.0 7.0 0.00 0.01 0.01 47 1015.5
20260502190130 46 40 3.0 6.0 0.00 0.01 0.01 47 1015.6
20260502185611 45 346 2.0 9.0 0.00 0.01 0.01 48 1015.7
20260502185129 45 346 2.0 9.0 0.00 0.01 0.01 48 1015.7
20260502184129 46 277 3.0 8.0 0.00 0.01 0.01 47 1015.8
20260502183611 47 241 2.0 8.0 0.00 0.01 0.01 44 1015.6
20260502183128 47 241 2.0 8.0 0.00 0.01 0.01 44 1015.6
20260502182130 46 155 4.0 10.0 0.00 0.01 0.01 47 1015.8
20260502181612 46 156 3.0 10.0 0.00 0.01 0.01 45 1015.7
20260502181339 46 156 3.0 10.0 0.00 0.01 0.01 45 1015.7
20260502180602 44 224 3.0 9.0 0.00 0.01 0.01 48 1016.0
20260502180339 44 224 3.0 9.0 0.00 0.01 0.01 48 1016.0
20260502170337 45 258 4.0 10.0 0.00 0.01 0.01 46 1016.1
20260502164334 45 347 4.0 11.0 0.00 0.01 0.01 45 1016.1
20260502163122 44 298 3.0 10.0 0.00 0.01 0.01 47 1016.4
20260502162510 43 27 3.0 9.0 0.00 0.01 0.01 48 1016.2
20260502162255 45 164 3.0 11.0 0.00 0.01 0.01 47 1016.1
20260502161330 43 27 3.0 9.0 0.00 0.01 0.01 48 1016.2
20260502160611 43 221 2.0 7.0 0.00 0.01 0.01 49 1016.4
20260502160119 43 221 2.0 7.0 0.00 0.01 0.01 49 1016.4
20260502152328 43 285 5.0 14.0 0.00 0.01 0.01 49 1016.4
20260502151114 42 304 3.0 11.0 0.00 0.02 0.01 53 1016.2
20260502150552 43 240 5.0 11.0 0.00 0.02 0.01 53 1016.2
20260502150324 43 240 5.0 11.0 0.00 0.02 0.01 53 1016.2
20260502140113 40 341 5.0 11.0 0.00 0.02 0.01 58 1016.5
20260502130104 40 53 4.0 9.0 0.00 0.01 0.00 72 1016.4
20260502123104 38 327 4.0 10.0 0.00 0.01 0.00 75 1016.4
20260502122104 38 349 4.0 8.0 0.00 0.01 0.00 76 1016.4
20260502121102 38 312 2.0 7.0 0.00 0.01 0.00 80 1016.5
20260502120546 37 327 3.0 8.0 0.00 0.01 0.00 81 1016.5
20260502120312 37 327 3.0 8.0 0.00 0.01 0.00 81 1016.5
20260502115553 37 298 3.0 6.0 0.00 0.01 0.00 84 1016.4
20260502115101 37 298 3.0 6.0 0.00 0.01 0.00 84 1016.4
20260502114533 36 328 2.0 6.0 0.00 0.01 0.00 85 1016.4
20260502114312 36 328 2.0 6.0 0.00 0.01 0.00 85 1016.4
20260502113101 35 292 2.0 4.0 0.00 0.01 0.00 88 1016.2
20260502112102 33 0 0.0 2.0 0.00 0.01 0.00 92 1016.2
20260502111101 33 0 0.0 1.0 0.00 0.01 0.00 94 1016.2
20260502110105 32 0 0.0 1.0 0.00 0.01 0.00 95 1016.2
20260502105101 31 0 0.0 0.0 0.00 0.01 0.00 96 1016.1
20260502104746 31 0 0.0 0.0 0.00 0.01 0.00 96 1016.1
20260502104556 31 0 0.0 0.0 0.00 0.01 0.00 96 1016.1
20260502103101 31 0 0.0 0.0 0.00 0.01 0.00 95 1016.0
20260502102102 32 0 0.0 0.0 0.00 0.01 0.00 94 1015.9
20260502101101 32 0 0.0 0.0 0.00 0.01 0.00 93 1015.9
20260502100546 33 0 0.0 0.0 0.00 0.01 0.00 92 1015.9
20260502091101 34 0 0.0 0.0 0.00 0.01 0.00 89 1015.7
20260502091021 34 0 0.0 0.0 0.00 0.01 0.00 89 1015.7
20260502090315 34 0 0.0 0.0 0.00 0.01 0.00 89 1015.7
20260502071053 35 0 0.0 0.0 0.00 0.01 0.00 86 1015.4
20260502070052 35 0 0.0 2.0 0.00 0.01 0.00 83 1015.5
20260502065536 35 80 0.0 2.0 0.00 0.01 0.00 86 1015.6
20260502065051 35 80 0.0 2.0 0.00 0.01 0.00 86 1015.6
20260502065008 35 0 0.0 0.0 0.00 0.01 0.00 85 1015.7
20260502064302 35 0 0.0 0.0 0.00 0.01 0.00 85 1015.7
20260502063049 35 0 0.0 0.0 0.00 0.01 0.00 84 1015.8
20260502062532 35 0 0.0 0.0 0.00 0.01 0.00 84 1015.8
20260502062050 35 0 0.0 0.0 0.00 0.01 0.00 84 1015.8
20260502061052 35 0 0.0 1.0 0.00 0.01 0.00 84 1015.9
20260502060052 35 0 0.0 3.0 0.00 0.01 0.00 83 1016.0
20260502055047 36 0 0.0 2.0 0.00 0.01 0.00 83 1016.0
20260502054048 36 0 0.0 2.0 0.00 0.01 0.00 82 1016.1
20260502053718 36 0 0.0 2.0 0.00 0.01 0.00 81 1016.2
20260502053604 36 0 0.0 2.0 0.00 0.01 0.00 81 1016.0
20260502053450 36 0 0.0 2.0 0.00 0.01 0.00 81 1016.2
20260502052259 36 0 0.0 2.0 0.00 0.01 0.00 81 1016.0
20260502051048 36 0 0.0 2.0 0.00 0.01 0.00 81 1016.1
20260502050741 35 0 0.0 3.0 0.00 0.01 0.00 82 1015.9
20260502050624 35 0 0.0 3.0 0.00 0.01 0.00 82 1015.9
20260502045047 35 74 1.0 3.0 0.00 0.01 0.00 82 1015.9
20260502044043 35 78 1.0 3.0 0.00 0.01 0.00 83 1015.8
20260502043522 35 67 1.0 4.0 0.00 0.01 0.00 82 1015.8
20260502043044 35 67 1.0 4.0 0.00 0.01 0.00 82 1015.8
20260502042044 36 104 2.0 4.0 0.00 0.01 0.00 83 1015.8
20260502041520 36 0 1.0 3.0 0.00 0.01 0.00 85 1015.8
20260502041255 36 0 1.0 3.0 0.00 0.01 0.00 85 1015.8
20260502040041 36 53 2.0 5.0 0.00 0.01 0.00 85 1015.7
20260502035042 36 47 2.0 3.0 0.00 0.01 0.01 84 1015.7
20260502034042 36 0 2.0 4.0 0.00 0.01 0.01 82 1015.6
20260502033522 37 78 1.0 3.0 0.00 0.01 0.01 81 1015.6
20260502033255 37 78 1.0 3.0 0.00 0.01 0.01 81 1015.6
20260502032529 37 0 1.0 3.0 0.00 0.01 0.01 80 1015.4
20260502032253 37 0 1.0 3.0 0.00 0.01 0.01 80 1015.4
20260502031038 37 62 1.0 5.0 0.00 0.01 0.01 79 1015.5
20260502030039 37 0 2.0 4.0 0.00 0.01 0.01 79 1015.4